Location: Bosmont
(49.7318°N, 3.8587°E)
Time: 00:31:37
(UTC+00:00)

Cosmos 676 Rocket - Pass Details

Date: 08 February 2023
Orbit: 754 x 782 km, 74.0° (Epoch: 21 March)

Event Time Altitude Azimuth Distance (km) Brightness Sun altitude
Rises 17:32:32 0° 206° (SSW) 3,243 7.9 -7.2°
Reaches altitude 10° 17:34:55 10° 208° (SSW) 2,315 7.1 -7.6°
Maximum altitude 17:40:11 78° 295° (WNW) 793 4.2 -8.4°
Drops below altitude 10° 17:45:26 10° 22° (NNE) 2,313 6.2 -9.2°
Sets 17:47:49 0° 23° (NNE) 3,238 6.9 -9.6°
